Helicity
-12 32 29 19 86 97 56 10 -20 -3 6 11 33 37 45 108 88 122 110 67 44 50 32 14 24 56 45 8 7 3 25 18 59 50 58 62 94 113 91 86 141 159 182 218
-10 3 8 13 49 46 48 35 -1 21 3 -42 15 24 40 105 120 137 121 67 38 3 -3 35 1 8 54 64 54 51 60 84 90 101 121 129 168 147 123 147 155 164 201 206
27 15 38 24 32 47 27 43 54 24 33 3 25 52 10 43 83 75 81 84 30 67 52 29 53 42 24 42 62 79 92 118 145 170 235 210 272 190 165 164 174 177 189 201
11 18 40 28 17 35 41 14 32 50 27 16 26 34 23 33 96 93 114 129 92 41 25 59 89 101 116 98 71 67 64 100 155 207 237 303 282 303 219 168 176 181 190 202
7 24 23 31 40 14 18 21 37 35 19 29 48 35 18 41 26 97 107 170 160 103 104 101 137 183 146 113 138 151 149 156 185 233 241 293 310 309 238 191 201 219 208 228
-13 19 20 16 36 9 22 36 69 53 70 27 27 61 -3 26 51 7 63 95 160 181 172 139 148 168 179 197 201 225 227 222 210 208 245 260 269 268 215 177 204 231 242 256
-14 16 44 37 69 24 36 65 46 60 86 5 56 56 -2 3 -7 -18 24 146 166 193 223 220 278 277 252 261 267 276 264 258 256 200 182 220 257 285 220 173 203 262 287 321
16 -30 33 27 40 38 33 48 82 54 53 22 53 14 -3 -11 2 14 -29 17 109 151 221 243 325 366 329 323 331 295 267 267 272 257 184 166 272 315 218 186 229 297 356 430
22 -13 17 22 22 59 58 57 35 86 72 52 31 41 14 22 21 47 59 42 43 85 184 228 271 362 357 383 372 333 277 287 253 236 221 263 272 292 273 224 325 409 480 586
13 -7 32 26 33 51 49 36 74 84 53 44 40 37 27 38 67 61 62 24 36 22 11 67 158 265 306 310 338 295 280 276 246 238 294 321 304 294 299 331 373 427 478 600
95 51 22 53 47 68 78 80 97 82 82 57 45 31 5 8 58 79 64 18 -11 3 13 55 103 163 201 221 245 244 255 256 241 243 235 251 272 269 281 287 347 395 532 603
48 53 11 18 50 50 38 44 104 116 63 104 106 24 50 19 16 9 13 23 16 -16 -28 -31 -12 55 118 131 159 189 219 241 209 243 235 226 252 274 289 324 409 439 446 425
79 61 21 71 113 96 70 69 126 169 170 91 99 40 50 24 21 40 30 14 27 31 19 28 35 43 58 43 74 155 171 194 238 272 291 299 302 344 364 396 400 394 396 432
148 135 116 59 68 88 91 122 123 144 113 94 102 73 49 55 67 49 51 59 49 44 49 51 64 65 97 126 145 186 228 291 304 312 356 385 396 358 318 355 378 360 393 367
137 78 131 107 76 95 75 83 156 159 116 119 52 103 46 45 62 52 43 84 92 81 63 40 28 78 113 147 161 202 252 293 313 343 364 397 365 328 384 425 450 522 455 415
174 104 143 118 139 125 90 83 79 76 102 103 106 78 67 84 99 127 146 165 204 207 215 206 165 129 109 113 152 189 217 243 275 312 333 343 375 444 484 572 635 613 611 517
178 198 153 110 182 184 101 82 119 123 158 158 160 117 143 145 177 202 232 245 240 232 236 237 209 169 149 146 191 231 267 301 341 392 444 491 547 566 590 534 594 471 484 279
245 253 204 137 213 67 118 177 151 155 156 174 181 168 222 262 293 343 369 315 290 248 212 177 158 175 200 218 262 298 329 370 429 462 490 499 532 565 596 564 509 350 233 105
162 242 210 174 169 149 142 152 171 135 89 126 146 224 295 316 333 354 296 241 188 147 121 132 182 219 259 283 281 349 375 389 397 390 427 463 476 434 429 462 315 99 124 130
216 217 200 188 170 131 68 118 186 203 147 149 180 182 213 194 196 139 141 135 144 153 175 201 228 249 265 227 235 295 295 335 357 344 328 310 298 325 133 104 112 137 130 120
352 326 247 271 198 162 107 156 224 239 117 183 205 152 152 134 133 146 142 170 160 174 205 232 270 275 238 218 254 286 271 265 234 236 228 208 167 127 132 143 124 114 104 110
328 360 313 307 263 151 194 316 305 154 98 189 220 197 220 188 191 192 187 184 191 236 252 271 318 326 285 258 289 278 273 215 225 217 201 169 146 142 123 107 100 101 107 121
288 252 244 193 162 171 151 175 142 133 111 150 235 181 223 237 210 209 219 238 246 261 294 309 338 378 382 339 292 284 228 207 210 211 191 160 136 119 112 101 96 104 122 136
266 260 247 238 184 191 201 143 126 118 123 156 172 199 213 252 240 263 273 262 277 303 335 342 388 391 371 330 309 281 229 189 192 186 160 127 116 109 100 96 101 116 134 147
211 300 222 212 207 242 152 121 137 195 217 272 280 234 245 300 276 284 299 317 336 368 388 383 378 367 343 322 322 278 236 190 176 146 126 117 98 87 79 76 80 98 113 136
252 253 278 192 255 326 138 167 181 248 257 271 348 333 309 299 312 353 382 372 390 417 413 419 393 369 324 294 273 239 196 152 133 123 104 83 68 61 63 63 70 75 85 109
Wind_Speed
25 24 19 21 29 31 36 39 46 42 44 42 45 52 11 22 29 32 37 43 50 54 57 58 57 52 51 56 52 50 44 40 31 19 9 9 10 4 3 10 10 9 9 10
22 20 19 28 26 41 41 37 46 48 40 38 44 46 12 23 39 38 38 42 46 52 54 56 59 57 54 56 54 45 40 36 31 23 16 3 4 10 9 11 9 7 9 9
17 21 29 36 37 36 43 40 41 44 46 44 44 42 43 7 30 38 41 41 42 44 47 49 48 54 54 54 48 40 36 35 30 17 8 13 15 27 16 10 10 10 9 9
13 21 24 35 39 36 44 43 46 43 45 47 37 45 46 16 21 41 49 45 43 41 40 38 34 36 43 45 31 26 27 26 18 15 14 13 9 5 10 12 12 14 12 8
16 22 24 24 36 34 39 41 41 41 46 43 41 40 47 32 24 42 59 51 43 39 33 31 33 37 25 16 20 21 19 19 12 17 20 17 8 12 16 17 13 11 12 13
10 29 32 38 36 39 38 37 38 39 39 46 41 34 46 32 29 56 47 49 43 32 39 31 20 15 17 13 14 18 17 16 17 22 19 19 15 11 12 14 13 11 12 13
10 13 36 36 33 29 28 32 38 38 38 44 39 42 53 52 53 53 44 34 40 42 36 33 21 19 17 19 20 16 21 24 25 19 22 19 18 13 11 11 10 10 14 17
12 11 23 27 25 24 28 26 30 37 39 42 42 47 39 43 48 51 51 9 15 23 27 34 34 29 26 24 21 21 24 22 15 23 22 18 16 14 14 13 11 14 17 17
8 7 31 30 30 26 24 27 30 30 40 48 45 45 54 43 44 43 35 23 12 7 19 34 30 27 23 22 24 21 17 18 17 22 19 18 19 17 17 16 15 17 18 19
5 7 30 29 26 30 28 15 30 35 42 49 47 49 47 50 41 36 37 38 28 18 9 5 10 13 13 15 14 15 18 16 18 18 19 19 19 18 15 16 20 16 20 21
4 9 14 32 26 29 26 32 32 29 33 44 51 44 33 41 35 39 39 37 30 25 16 8 5 5 6 5 8 13 14 13 13 14 16 17 17 15 15 19 23 27 26 23
4 11 13 22 40 33 33 28 32 37 34 36 42 59 41 34 42 42 42 37 33 28 22 16 12 10 7 3 4 7 7 11 13 17 18 17 17 16 21 23 27 26 26 27
6 17 11 35 42 43 42 39 39 34 28 22 34 38 37 37 38 42 43 41 30 21 22 22 20 13 10 10 13 12 13 16 19 20 19 20 20 26 25 23 24 22 22 26
6 17 18 25 33 40 47 42 32 31 36 34 38 37 37 54 49 47 46 44 34 30 25 28 30 29 30 27 23 25 25 25 25 24 25 26 27 23 21 21 22 23 27 32
14 24 20 36 41 38 47 52 39 41 41 44 58 42 55 52 50 50 48 37 26 36 46 48 49 42 36 36 36 35 35 32 29 29 27 28 24 23 24 27 29 30 36 37
22 27 21 27 34 39 44 41 34 34 38 45 49 49 49 46 40 39 34 32 30 32 39 42 43 43 43 43 39 36 34 32 29 28 27 23 22 24 26 30 34 29 34 38
23 21 21 23 35 40 31 20 38 47 42 40 39 43 42 44 37 35 31 28 28 32 36 39 41 42 42 40 37 37 34 31 29 27 28 27 26 26 29 30 33 36 43 43
27 23 28 30 32 26 53 46 39 36 48 46 57 51 36 31 30 31 31 26 28 32 36 39 41 43 44 42 39 36 34 32 30 30 28 27 26 29 33 38 43 45 48 53
34 24 30 32 35 59 55 44 39 38 50 38 42 36 25 16 21 30 30 28 28 32 35 38 41 42 42 41 38 36 36 33 32 30 29 31 34 38 41 47 50 52 52 55
31 33 29 32 42 55 59 39 30 35 44 33 25 11 6 10 20 22 21 24 29 33 36 38 39 39 40 38 35 36 35 34 34 33 34 39 42 47 51 50 51 52 53 57
40 39 35 36 44 61 45 38 22 41 52 17 7 3 3 15 24 14 16 24 28 31 33 34 36 37 37 35 35 37 36 38 37 39 43 47 47 48 50 52 52 55 58 61
43 40 42 41 45 64 30 28 31 36 36 9 4 6 8 15 14 14 18 23 27 29 31 32 33 35 36 37 37 38 41 40 42 44 47 48 50 52 54 56 59 62 66 71
50 39 41 40 47 40 26 35 26 31 26 6 4 2 2 5 12 14 18 22 24 25 27 29 31 34 39 40 40 42 43 44 46 48 50 52 54 57 59 63 67 71 75 81
50 42 47 42 43 43 41 35 31 24 14 3 4 4 0 5 7 13 16 19 21 23 26 27 31 36 39 41 43 46 47 46 47 51 54 56 61 65 67 69 74 79 84 89
51 36 42 50 51 47 44 32 19 12 7 4 5 5 4 4 9 11 14 17 20 23 26 28 32 35 38 41 46 48 49 49 52 55 59 64 67 71 73 75 78 82 81 83
47 43 40 43 39 31 32 15 11 5 5 5 2 8 11 9 9 11 16 18 20 24 26 30 33 35 39 43 45 48 51 53 57 60 65 69 72 74 77 81 85 80 84 88
Wind_Direction
42 43 62 23 291 284 270 261 234 245 251 274 255 247 67 119 128 128 134 143 158 166 170 174 170 159 160 170 165 163 155 151 139 127 121 119 127 89 28 86 43 29 40 22
67 108 96 322 318 256 261 275 249 253 274 301 283 241 0 138 166 157 148 151 158 169 169 172 177 172 169 173 170 162 160 157 151 144 140 345 102 322 329 340 1 23 14 18
90 28 354 293 281 275 263 272 267 262 273 287 281 275 264 105 163 168 172 169 164 164 165 166 166 174 176 178 172 168 167 166 163 156 152 316 319 304 314 326 331 344 2 9
82 23 357 293 279 276 268 261 257 263 270 258 293 268 252 144 163 178 186 178 174 169 167 164 161 165 172 176 168 169 171 173 174 177 181 182 193 259 301 310 322 328 337 351
81 32 353 326 285 274 273 258 271 274 264 269 281 299 264 325 167 190 200 192 185 180 176 174 175 179 176 176 172 173 174 180 194 189 186 194 251 297 318 311 315 332 333 332
33 335 317 294 282 280 273 277 284 283 273 271 293 320 287 324 318 246 203 198 191 187 187 188 199 203 195 212 199 190 190 193 197 188 198 205 223 265 292 296 300 312 319 323
4 360 305 297 288 294 289 289 287 283 281 287 298 305 256 272 278 260 219 185 191 190 190 192 203 207 213 201 195 198 191 193 196 202 204 218 229 255 272 275 280 293 304 312
151 152 320 307 292 297 291 303 299 292 289 289 302 297 330 304 294 292 269 352 169 192 198 196 196 196 193 191 191 194 193 202 221 209 219 236 256 265 277 268 268 295 302 310
78 125 302 298 299 296 293 300 301 313 305 290 299 315 295 312 305 312 328 351 8 149 181 188 188 190 196 194 196 197 206 216 229 223 236 256 264 275 282 280 287 302 311 315
2 10 298 304 300 290 293 319 304 308 302 294 302 305 299 305 316 341 332 314 337 348 355 151 179 189 203 206 209 212 214 225 232 252 259 266 274 275 281 291 292 292 300 301
298 293 308 292 293 292 295 293 304 315 312 306 304 309 334 327 326 331 324 328 349 339 353 17 95 135 173 217 228 217 229 247 259 269 279 282 282 286 286 294 298 299 307 314
246 315 245 284 287 294 296 303 296 299 307 312 314 289 321 323 314 311 311 326 333 337 345 360 27 50 82 124 192 212 270 277 284 298 304 306 310 309 309 313 313 313 311 315
258 303 245 280 284 285 290 296 297 306 308 304 314 318 337 328 324 313 306 316 332 339 331 333 331 339 333 328 325 321 314 312 315 316 312 318 317 317 323 326 325 325 324 323
267 291 276 223 281 288 286 285 289 300 301 305 305 317 320 305 306 309 310 313 320 317 317 315 317 317 318 321 320 318 318 321 322 322 320 319 321 323 327 330 330 326 328 320
267 285 287 287 286 289 290 289 286 286 293 294 299 312 309 305 305 310 316 326 325 306 295 297 301 309 318 322 323 324 323 325 328 329 327 324 327 330 331 332 333 328 331 327
276 292 293 288 293 292 294 296 297 299 301 299 301 305 310 314 319 323 329 335 333 323 315 313 316 318 319 320 325 328 330 332 335 336 336 338 337 338 338 337 341 339 343 334
263 269 287 284 296 297 290 287 295 295 298 300 295 302 308 306 315 323 331 338 336 331 329 329 331 336 339 341 343 343 345 349 350 352 352 350 350 350 351 349 344 334 330 328
263 259 282 288 296 234 288 300 305 297 298 296 297 301 300 302 314 322 326 335 336 334 335 336 339 342 345 351 354 358 360 0 0 359 360 3 1 352 344 339 334 330 329 325
273 261 278 280 285 288 293 307 310 311 308 311 305 301 299 308 319 316 324 333 338 339 341 344 346 350 353 355 1 5 4 5 6 7 6 358 349 342 338 333 329 327 327 326
275 276 261 288 289 290 298 314 317 317 308 317 317 310 285 304 301 313 332 339 340 344 346 349 352 356 0 5 11 11 10 10 6 1 355 348 341 336 333 333 332 331 330 328
265 272 264 278 288 290 302 316 332 304 313 323 303 220 250 301 316 342 347 342 348 350 353 358 2 4 8 13 14 11 8 2 359 353 346 343 341 340 338 336 335 333 332 330
260 262 271 282 287 287 309 319 301 314 324 320 229 205 291 321 340 345 344 345 348 352 1 7 11 11 10 10 9 6 359 359 354 351 348 346 345 342 340 338 336 334 331 329
264 268 269 274 286 300 310 312 311 322 323 306 178 227 211 342 332 341 345 351 356 3 8 12 12 11 8 5 5 359 358 355 352 351 350 348 346 343 341 337 335 333 331 328
270 275 276 283 287 293 301 305 311 316 320 315 294 154 166 336 357 353 356 359 3 5 4 11 10 4 1 3 2 359 356 356 356 352 349 347 343 340 339 337 335 333 331 329
272 271 277 284 290 295 295 298 303 313 320 336 326 314 325 359 346 352 356 356 358 360 1 6 1 0 359 1 360 359 358 356 351 349 346 343 341 339 337 337 335 334 334 332
269 275 271 281 291 285 295 287 296 273 275 274 241 315 324 329 341 349 347 352 354 355 358 358 359 359 357 358 358 357 355 353 349 345 343 342 340 339 338 336 335 336 334 334